Weather History for Carbondale, IL

Change the Weather History Date:

Tuesday, January 7, 2014

  Actual Average Record
Temperature  
Mean Temperature 12 °F -  
Max Temperature 23 °F 40 °F 68 °F (2008)
Min Temperature 0 °F 21 °F -19 °F (1912)
Degree Days  
Heating Degree Days 54    
Moisture  
Dew Point 1 °F    
Average Humidity 60    
Maximum Humidity 69    
Minimum Humidity 50    
Precipitation  
Precipitation 0.00 in - - ()
Sea Level Pressure  
Sea Level Pressure 30.45 in    
Wind  
Wind Speed 11 mph (SSW)    
Max Wind Speed 22 mph    
Max Gust Speed 30 mph    
Visibility 10 miles    
Events      
Averages and records for this station are not official NWS values.
T = Trace of Precipitation, MM = Missing Value Source: NWS Daily Summary

Daily Weather History Graph

Daily Weather History Graph

Search for Another Location

Airport:

Trip Planner

Search our weather history database for the weather conditions in past years. The results will help you decide how hot, cold, wet, or windy it might be!

Date:

Astronomy

Jan. 07, 2014 Rise Set
Actual Time 7:12 AM CST 4:54 PM CST
Civil Twilight 6:43 AM CST 5:23 PM CST
Nautical Twilight 6:11 AM CST 5:55 PM CST
Astronomical Twilight 5:39 AM CST 6:27 PM CST
Moon 11:09 AM CST (1/7) No Moon Set
Length of Visible Light 10h 39m
Length of Day
9h 41m
Waxing Crescent, 46% of the Moon is Illuminated
Jan 7
Waxing Crescent
Jan 7
First Quarter
Jan 15
Full
Jan 23
Last Quarter
Jan 30
New

Hourly Weather History & Observations

Time (CST) Temp. Windchill Dew Point Humidity Pressure Visibility Wind Dir Wind Speed Gust Speed Precip Events Conditions
12:52 AM -0.9 °F -11.0 °F -11.0 °F 62% 30.56 in 10.0 mi SW 4.6 mph - N/A   Clear
1:52 AM -0.9 °F -14.1 °F -9.9 °F 66% 30.57 in 10.0 mi SSW 6.9 mph - N/A   Clear
2:52 AM -0.0 °F -14.2 °F -9.0 °F 66% 30.56 in 10.0 mi SW 8.1 mph - N/A   Clear
3:52 AM -0.0 °F -14.2 °F -9.0 °F 66% 30.55 in 10.0 mi SSW 8.1 mph - N/A   Clear
4:52 AM 1.0 °F -14.9 °F -9.0 °F 63% 30.56 in 10.0 mi SW 10.4 mph - N/A   Clear
5:52 AM -0.0 °F -14.2 °F -9.0 °F 66% 30.53 in 10.0 mi SSW 8.1 mph - N/A   Clear
6:52 AM -0.0 °F -11.6 °F -8.0 °F 69% 30.53 in 10.0 mi SSW 5.8 mph - N/A   Clear
7:52 AM 1.0 °F -12.9 °F -8.0 °F 66% 30.55 in 10.0 mi South 8.1 mph - N/A   Clear
8:52 AM 6.1 °F -9.5 °F -5.1 °F 60% 30.56 in 10.0 mi SW 11.5 mph - N/A   Clear
9:52 AM 9.0 °F -5.9 °F -4.0 °F 56% 30.56 in 10.0 mi SW 11.5 mph - N/A   Partly Cloudy
10:52 AM 12.9 °F -2.2 °F -0.9 °F 54% 30.52 in 10.0 mi South 13.8 mph - N/A   Scattered Clouds
11:52 AM 16.0 °F 2.3 °F 1.0 °F 52% 30.47 in 10.0 mi SSW 12.7 mph - N/A   Scattered Clouds
12:52 PM 18.0 °F 3.6 °F 1.9 °F 50% 30.40 in 10.0 mi SSW 15.0 mph - N/A   Clear
1:52 PM 19.9 °F 4.8 °F 5.0 °F 52% 30.38 in 10.0 mi South 18.4 mph 25.3 mph N/A   Overcast
2:52 PM 21.0 °F 5.0 °F 6.1 °F 53% 30.35 in 10.0 mi South 21.9 mph - N/A   Partly Cloudy
3:52 PM 21.9 °F 6.2 °F 7.0 °F 53% 30.34 in 10.0 mi South 21.9 mph - N/A   Clear
4:52 PM 21.0 °F 7.1 °F 9.0 °F 60% 30.33 in 10.0 mi South 16.1 mph - N/A   Clear
5:52 PM 21.0 °F 5.4 °F 9.0 °F 60% 30.30 in 10.0 mi South 20.7 mph 29.9 mph N/A   Clear
6:52 PM 21.9 °F 7.8 °F 10.0 °F 60% 30.34 in 10.0 mi SSW 17.3 mph 23.0 mph N/A   Clear
7:52 PM 21.9 °F 7.3 °F 10.9 °F 63% 30.35 in 10.0 mi SSW 18.4 mph 26.5 mph N/A   Clear
8:52 PM 23.0 °F 8.3 °F 10.9 °F 60% 30.35 in 10.0 mi SSW 19.6 mph - N/A   Clear
9:52 PM 23.0 °F 9.2 °F 10.9 °F 60% 30.34 in 10.0 mi SSW 17.3 mph - N/A   Clear
10:52 PM 23.0 °F 8.7 °F 12.0 °F 63% 30.35 in 10.0 mi SSW 18.4 mph - N/A   Clear
11:52 PM 23.0 °F 10.1 °F 12.0 °F 63% 30.35 in 10.0 mi SSW 15.0 mph - N/A   Clear